Time,TemperatureF,DewpointF,PressureIn,WindDirection,WindDirectionDegrees,WindSpeedMPH,WindSpeedGustMPH,Humidity,HourlyPrecipIn,Conditions,Clouds,dailyrainin,SolarRadiationWatts/m^2,SoftwareType,DateUTC
2013-05-29 00:01:00,71.8,61.8,29.94,SW,219,2.0,8.0,71,0.00,,,0.16,0,HR-IXPWINDi_r2_v1.2.,2013-05-29 04:01:00,
2013-05-29 00:06:00,71.8,61.8,29.94,SW,219,0.0,6.0,71,0.00,,,0.16,0,HR-IXPWINDi_r2_v1.2.,2013-05-29 04:06:00,
2013-05-29 00:11:00,71.8,61.8,29.94,SW,219,0.0,4.0,71,0.00,,,0.16,0,HR-IXPWINDi_r2_v1.2.,2013-05-29 04:11:00,
2013-05-29 00:16:00,71.8,61.8,29.94,SW,219,1.0,4.0,71,0.00,,,0.16,0,HR-IXPWINDi_r2_v1.2.,2013-05-29 04:16:00,
2013-05-29 00:21:00,71.6,61.6,29.94,SW,218,0.0,3.0,71,0.00,,,0.16,0,HR-IXPWINDi_r2_v1.2.,2013-05-29 04:21:00,
2013-05-29 00:26:00,71.6,61.6,29.94,SW,218,0.0,4.0,71,0.00,,,0.16,0,HR-IXPWINDi_r2_v1.2.,2013-05-29 04:26:00,
2013-05-29 00:32:00,71.5,61.9,29.94,SW,218,0.0,4.0,72,0.00,,,0.16,0,HR-IXPWINDi_r2_v1.2.,2013-05-29 04:32:00,
2013-05-29 00:37:00,71.5,61.9,29.94,SW,218,0.0,2.0,72,0.00,,,0.16,0,HR-IXPWINDi_r2_v1.2.,2013-05-29 04:37:00,
2013-05-29 00:42:00,71.3,61.7,29.94,SW,218,0.0,2.0,72,0.00,,,0.16,0,HR-IXPWINDi_r2_v1.2.,2013-05-29 04:42:00,
2013-05-29 00:47:00,71.1,61.6,29.94,SW,218,0.0,3.0,72,0.00,,,0.16,0,HR-IXPWINDi_r2_v1.2.,2013-05-29 04:47:00,
2013-05-29 00:53:00,71.1,61.6,29.94,SW,218,2.0,3.0,72,0.00,,,0.16,0,HR-IXPWINDi_r2_v1.2.,2013-05-29 04:53:00,
2013-05-29 00:58:00,70.9,61.8,29.94,SW,218,0.0,3.0,73,0.00,,,0.16,0,HR-IXPWINDi_r2_v1.2.,2013-05-29 04:58:00,
2013-05-29 01:03:00,70.9,61.8,29.95,SW,218,0.0,3.0,73,0.00,,,0.00,0,HR-IXPWINDi_r2_v1.2.,2013-05-29 05:03:00,
2013-05-29 01:08:00,70.8,61.7,29.95,SW,218,3.0,3.0,73,0.00,,,0.00,0,HR-IXPWINDi_r2_v1.2.,2013-05-29 05:08:00,
2013-05-29 01:14:00,70.8,61.7,29.95,SW,218,1.0,3.0,73,0.00,,,0.00,0,HR-IXPWINDi_r2_v1.2.,2013-05-29 05:14:00,
2013-05-29 01:19:00,70.8,61.7,29.95,SW,218,0.0,3.0,73,0.00,,,0.00,0,HR-IXPWINDi_r2_v1.2.,2013-05-29 05:19:00,
2013-05-29 01:24:00,70.6,61.5,29.95,SW,218,0.0,3.0,73,0.00,,,0.00,0,HR-IXPWINDi_r2_v1.2.,2013-05-29 05:24:00,
2013-05-29 01:29:00,70.4,61.7,29.95,SW,218,0.0,3.0,74,0.00,,,0.00,0,HR-IXPWINDi_r2_v1.2.,2013-05-29 05:29:00,
2013-05-29 01:34:00,70.4,61.7,29.95,SW,218,0.0,3.0,74,0.00,,,0.00,0,HR-IXPWINDi_r2_v1.2.,2013-05-29 05:34:00,
2013-05-29 01:39:00,70.3,61.6,29.95,SW,218,0.0,3.0,74,0.00,,,0.00,0,HR-IXPWINDi_r2_v1.2.,2013-05-29 05:39:00,
2013-05-29 01:45:00,70.3,61.6,29.95,SW,218,0.0,2.0,74,0.00,,,0.00,0,HR-IXPWINDi_r2_v1.2.,2013-05-29 05:45:00,
2013-05-29 01:50:00,70.1,61.4,29.95,SW,218,0.0,1.0,74,0.00,,,0.00,0,HR-IXPWINDi_r2_v1.2.,2013-05-29 05:50:00,
2013-05-29 01:55:00,69.9,61.6,29.95,SW,218,0.0,1.0,75,0.00,,,0.00,0,HR-IXPWINDi_r2_v1.2.,2013-05-29 05:55:00,
2013-05-29 02:01:00,69.6,61.3,29.95,SW,218,0.0,1.0,75,0.00,,,0.00,0,HR-IXPWINDi_r2_v1.2.,2013-05-29 06:01:00,
2013-05-29 02:06:00,69.4,61.4,29.95,SW,221,1.0,3.0,76,0.00,,,0.00,0,HR-IXPWINDi_r2_v1.2.,2013-05-29 06:06:00,
2013-05-29 02:11:00,69.3,61.3,29.95,SW,221,3.0,3.0,76,0.00,,,0.00,0,HR-IXPWINDi_r2_v1.2.,2013-05-29 06:11:00,
2013-05-29 02:16:00,69.1,61.5,29.96,SW,221,1.0,4.0,77,0.00,,,0.00,0,HR-IXPWINDi_r2_v1.2.,2013-05-29 06:16:00,
2013-05-29 02:22:00,68.9,61.3,29.96,SW,221,0.0,4.0,77,0.00,,,0.00,0,HR-IXPWINDi_r2_v1.2.,2013-05-29 06:22:00,
2013-05-29 02:27:00,68.9,61.3,29.96,SW,221,1.0,4.0,77,0.00,,,0.00,0,HR-IXPWINDi_r2_v1.2.,2013-05-29 06:27:00,
2013-05-29 02:32:00,68.9,61.3,29.95,SW,221,0.0,4.0,77,0.00,,,0.00,0,HR-IXPWINDi_r2_v1.2.,2013-05-29 06:32:00,
2013-05-29 02:37:00,69.1,61.5,29.95,SW,221,0.0,4.0,77,0.00,,,0.00,0,HR-IXPWINDi_r2_v1.2.,2013-05-29 06:37:00,
2013-05-29 02:42:00,69.1,61.5,29.95,SSW,208,5.0,9.0,77,0.00,,,0.00,0,HR-IXPWINDi_r2_v1.2.,2013-05-29 06:42:00,
2013-05-29 02:48:00,69.3,61.7,29.95,SW,219,0.0,9.0,77,0.00,,,0.00,0,HR-IXPWINDi_r2_v1.2.,2013-05-29 06:48:00,
2013-05-29 02:53:00,69.4,61.4,29.95,SW,219,1.0,6.0,76,0.00,,,0.00,0,HR-IXPWINDi_r2_v1.2.,2013-05-29 06:53:00,
2013-05-29 02:58:00,69.6,61.6,29.95,SSW,211,3.0,4.0,76,0.00,,,0.00,0,HR-IXPWINDi_r2_v1.2.,2013-05-29 06:58:00,
2013-05-29 03:03:00,69.8,61.5,29.95,SSW,211,0.0,4.0,75,0.00,,,0.00,0,HR-IXPWINDi_r2_v1.2.,2013-05-29 07:03:00,
2013-05-29 03:08:00,69.9,61.6,29.95,SW,217,0.0,5.0,75,0.00,,,0.00,0,HR-IXPWINDi_r2_v1.2.,2013-05-29 07:08:00,
2013-05-29 03:13:00,70.1,61.7,29.95,SW,217,2.0,5.0,75,0.00,,,0.00,0,HR-IXPWINDi_r2_v1.2.,2013-05-29 07:13:00,
2013-05-29 03:19:00,70.3,61.6,29.94,SSW,205,3.0,7.0,74,0.00,,,0.00,0,HR-IXPWINDi_r2_v1.2.,2013-05-29 07:19:00,
2013-05-29 03:24:00,70.3,61.6,29.94,SSW,212,3.0,7.0,74,0.00,,,0.00,0,HR-IXPWINDi_r2_v1.2.,2013-05-29 07:24:00,
2013-05-29 03:29:00,70.4,61.3,29.94,SSW,199,4.0,9.0,73,0.00,,,0.00,0,HR-IXPWINDi_r2_v1.2.,2013-05-29 07:29:00,
2013-05-29 03:34:00,70.6,61.5,29.94,SSW,210,3.0,9.0,73,0.00,,,0.00,0,HR-IXPWINDi_r2_v1.2.,2013-05-29 07:34:00,
2013-05-29 03:40:00,70.8,61.3,29.94,SW,217,1.0,7.0,72,0.00,,,0.00,0,HR-IXPWINDi_r2_v1.2.,2013-05-29 07:40:00,
2013-05-29 03:45:00,70.8,61.3,29.94,SSW,206,4.0,7.0,72,0.00,,,0.00,0,HR-IXPWINDi_r2_v1.2.,2013-05-29 07:45:00,
2013-05-29 03:50:00,70.9,61.4,29.93,SSW,207,2.0,6.0,72,0.00,,,0.00,0,HR-IXPWINDi_r2_v1.2.,2013-05-29 07:50:00,
2013-05-29 03:55:00,70.9,61.0,29.93,SSW,207,0.0,6.0,71,0.00,,,0.00,0,HR-IXPWINDi_r2_v1.2.,2013-05-29 07:55:00,
2013-05-29 04:00:00,70.9,61.0,29.93,SW,224,0.0,3.0,71,0.00,,,0.00,0,HR-IXPWINDi_r2_v1.2.,2013-05-29 08:00:00,
2013-05-29 04:06:00,70.8,60.9,29.94,SSW,208,3.0,6.0,71,0.00,,,0.00,0,HR-IXPWINDi_r2_v1.2.,2013-05-29 08:06:00,
2013-05-29 04:11:00,70.8,61.3,29.94,SSW,206,2.0,6.0,72,0.00,,,0.00,0,HR-IXPWINDi_r2_v1.2.,2013-05-29 08:11:00,
2013-05-29 04:16:00,70.6,61.1,29.94,SW,219,0.0,6.0,72,0.00,,,0.00,0,HR-IXPWINDi_r2_v1.2.,2013-05-29 08:16:00,
2013-05-29 04:21:00,70.4,60.9,29.94,SW,219,3.0,5.0,72,0.00,,,0.00,0,HR-IXPWINDi_r2_v1.2.,2013-05-29 08:21:00,
2013-05-29 04:27:00,70.4,60.9,29.94,SSW,208,4.0,6.0,72,0.00,,,0.00,0,HR-IXPWINDi_r2_v1.2.,2013-05-29 08:27:00,
2013-05-29 04:32:00,70.4,60.9,29.95,SSW,208,1.0,6.0,72,0.00,,,0.00,0,HR-IXPWINDi_r2_v1.2.,2013-05-29 08:32:00,
2013-05-29 04:37:00,70.4,60.9,29.95,SSW,208,3.0,6.0,72,0.00,,,0.00,0,HR-IXPWINDi_r2_v1.2.,2013-05-29 08:37:00,
2013-05-29 04:42:00,70.3,60.8,29.95,SSW,205,2.0,6.0,72,0.00,,,0.00,0,HR-IXPWINDi_r2_v1.2.,2013-05-29 08:42:00,
2013-05-29 04:47:00,70.3,60.8,29.95,SW,226,0.0,6.0,72,0.00,,,0.00,0,HR-IXPWINDi_r2_v1.2.,2013-05-29 08:47:00,
2013-05-29 04:52:00,70.3,60.8,29.95,SW,228,0.0,6.0,72,0.00,,,0.00,0,HR-IXPWINDi_r2_v1.2.,2013-05-29 08:52:00,
2013-05-29 04:57:00,70.1,60.6,29.95,SW,227,4.0,4.0,72,0.00,,,0.00,0,HR-IXPWINDi_r2_v1.2.,2013-05-29 08:57:00,
2013-05-29 05:03:00,70.1,60.6,29.95,SW,214,0.0,7.0,72,0.00,,,0.00,0,HR-IXPWINDi_r2_v1.2.,2013-05-29 09:03:00,
2013-05-29 05:08:00,70.1,60.6,29.95,SW,236,1.0,7.0,72,0.00,,,0.00,0,HR-IXPWINDi_r2_v1.2.,2013-05-29 09:08:00,
2013-05-29 05:13:00,69.9,60.4,29.95,SW,236,1.0,3.0,72,0.00,,,0.00,0,HR-IXPWINDi_r2_v1.2.,2013-05-29 09:13:00,
2013-05-29 05:18:00,69.8,60.3,29.95,South,179,0.0,4.0,72,0.00,,,0.00,0,HR-IXPWINDi_r2_v1.2.,2013-05-29 09:18:00,
2013-05-29 05:23:00,69.6,60.5,29.95,SSW,208,0.0,4.0,73,0.00,,,0.00,0,HR-IXPWINDi_r2_v1.2.,2013-05-29 09:23:00,
2013-05-29 05:28:00,69.4,60.3,29.95,SSW,208,1.0,2.0,73,0.00,,,0.00,0,HR-IXPWINDi_r2_v1.2.,2013-05-29 09:28:00,
2013-05-29 05:34:00,69.3,60.2,29.96,SSW,208,0.0,2.0,73,0.00,,,0.00,0,HR-IXPWINDi_r2_v1.2.,2013-05-29 09:34:00,
2013-05-29 05:39:00,69.1,60.0,29.96,SSW,208,0.0,2.0,73,0.00,,,0.00,0,HR-IXPWINDi_r2_v1.2.,2013-05-29 09:39:00,
2013-05-29 05:44:00,68.9,60.2,29.96,SSW,208,0.0,1.0,74,0.00,,,0.00,0,HR-IXPWINDi_r2_v1.2.,2013-05-29 09:44:00,
2013-05-29 05:49:00,68.8,60.1,29.97,SSW,208,0.0,1.0,74,0.00,,,0.00,0,HR-IXPWINDi_r2_v1.2.,2013-05-29 09:49:00,
2013-05-29 05:55:00,68.6,60.3,29.97,SSW,208,0.0,1.0,75,0.00,,,0.00,0,HR-IXPWINDi_r2_v1.2.,2013-05-29 09:55:00,
2013-05-29 06:00:00,68.4,60.1,29.97,SSW,208,0.0,1.0,75,0.00,,,0.00,0,HR-IXPWINDi_r2_v1.2.,2013-05-29 10:00:00,
2013-05-29 06:05:00,68.3,60.4,29.97,SSW,208,0.0,1.0,76,0.00,,,0.00,5,HR-IXPWINDi_r2_v1.2.,2013-05-29 10:05:00,
2013-05-29 06:10:00,68.1,60.2,29.97,SSW,208,0.0,1.0,76,0.00,,,0.00,9,HR-IXPWINDi_r2_v1.2.,2013-05-29 10:10:00,
2013-05-29 06:15:00,67.9,60.4,29.97,SSW,208,0.0,1.0,77,0.00,,,0.00,11,HR-IXPWINDi_r2_v1.2.,2013-05-29 10:15:00,
2013-05-29 06:20:00,67.8,60.3,29.97,SSW,208,0.0,2.0,77,0.00,,,0.00,12,HR-IXPWINDi_r2_v1.2.,2013-05-29 10:20:00,
2013-05-29 06:26:00,67.6,60.1,29.97,SSW,208,0.0,2.0,77,0.00,,,0.00,16,HR-IXPWINDi_r2_v1.2.,2013-05-29 10:26:00,
2013-05-29 06:31:00,67.6,60.1,29.98,South,176,0.0,4.0,77,0.00,,,0.00,16,HR-IXPWINDi_r2_v1.2.,2013-05-29 10:31:00,
2013-05-29 06:36:00,67.6,60.4,29.98,South,176,0.0,4.0,78,0.00,,,0.00,16,HR-IXPWINDi_r2_v1.2.,2013-05-29 10:36:00,
2013-05-29 06:41:00,67.6,60.4,29.98,SSW,199,0.0,2.0,78,0.00,,,0.00,18,HR-IXPWINDi_r2_v1.2.,2013-05-29 10:41:00,
2013-05-29 06:46:00,67.6,60.4,29.99,SSW,198,0.0,2.0,78,0.00,,,0.00,21,HR-IXPWINDi_r2_v1.2.,2013-05-29 10:46:00,
2013-05-29 06:52:00,67.8,60.6,29.99,SSW,199,1.0,2.0,78,0.00,,,0.00,25,HR-IXPWINDi_r2_v1.2.,2013-05-29 10:52:00,
2013-05-29 06:57:00,67.8,60.6,29.99,SSW,203,0.0,3.0,78,0.00,,,0.00,30,HR-IXPWINDi_r2_v1.2.,2013-05-29 10:57:00,
2013-05-29 07:02:00,67.9,60.7,30.00,SW,227,0.0,5.0,78,0.00,,,0.00,39,HR-IXPWINDi_r2_v1.2.,2013-05-29 11:02:00,
2013-05-29 07:07:00,68.1,60.9,30.00,SW,227,0.0,5.0,78,0.00,,,0.00,54,HR-IXPWINDi_r2_v1.2.,2013-05-29 11:07:00,
2013-05-29 07:12:00,68.1,60.6,30.00,SW,224,0.0,5.0,77,0.00,,,0.00,65,HR-IXPWINDi_r2_v1.2.,2013-05-29 11:12:00,
2013-05-29 07:17:00,68.3,60.7,30.00,SW,224,1.0,5.0,77,0.00,,,0.00,70,HR-IXPWINDi_r2_v1.2.,2013-05-29 11:17:00,
2013-05-29 07:23:00,68.3,60.7,30.00,SW,224,0.0,3.0,77,0.00,,,0.00,72,HR-IXPWINDi_r2_v1.2.,2013-05-29 11:23:00,
2013-05-29 07:28:00,68.4,60.8,30.00,SW,224,0.0,3.0,77,0.00,,,0.00,70,HR-IXPWINDi_r2_v1.2.,2013-05-29 11:28:00,
2013-05-29 07:33:00,68.4,60.8,30.00,SW,224,1.0,3.0,77,0.00,,,0.00,60,HR-IXPWINDi_r2_v1.2.,2013-05-29 11:33:00,
2013-05-29 07:38:00,68.6,61.0,30.00,SW,216,1.0,4.0,77,0.00,,,0.00,56,HR-IXPWINDi_r2_v1.2.,2013-05-29 11:38:00,
2013-05-29 07:43:00,68.6,60.7,30.00,SW,214,9.0,9.0,76,0.00,,,0.00,60,HR-IXPWINDi_r2_v1.2.,2013-05-29 11:43:00,
2013-05-29 07:49:00,68.8,60.9,30.00,SW,217,5.0,9.0,76,0.00,,,0.00,63,HR-IXPWINDi_r2_v1.2.,2013-05-29 11:49:00,
2013-05-29 07:54:00,69.1,61.2,30.00,SSW,200,2.0,9.0,76,0.00,,,0.00,67,HR-IXPWINDi_r2_v1.2.,2013-05-29 11:54:00,
2013-05-29 07:59:00,69.3,61.0,30.00,SSW,212,1.0,7.0,75,0.00,,,0.00,76,HR-IXPWINDi_r2_v1.2.,2013-05-29 11:59:00,
2013-05-29 08:04:00,69.6,61.3,30.00,SW,215,4.0,8.0,75,0.00,,,0.00,81,HR-IXPWINDi_r2_v1.2.,2013-05-29 12:04:00,
2013-05-29 08:09:00,69.8,61.5,30.00,SSW,210,0.0,8.0,75,0.00,,,0.00,79,HR-IXPWINDi_r2_v1.2.,2013-05-29 12:09:00,
2013-05-29 08:14:00,70.1,61.4,30.00,SW,215,2.0,6.0,74,0.00,,,0.00,88,HR-IXPWINDi_r2_v1.2.,2013-05-29 12:14:00,
2013-05-29 08:19:00,70.4,61.7,30.00,SSW,204,2.0,7.0,74,0.00,,,0.00,98,HR-IXPWINDi_r2_v1.2.,2013-05-29 12:19:00,
2013-05-29 08:24:00,70.8,61.7,30.00,South,173,0.0,7.0,73,0.00,,,0.00,120,HR-IXPWINDi_r2_v1.2.,2013-05-29 12:24:00,
2013-05-29 08:30:00,71.1,61.6,30.00,SSW,207,4.0,8.0,72,0.00,,,0.00,123,HR-IXPWINDi_r2_v1.2.,2013-05-29 12:30:00,
2013-05-29 08:35:00,71.5,61.9,30.00,South,191,2.0,11.0,72,0.00,,,0.00,123,HR-IXPWINDi_r2_v1.2.,2013-05-29 12:35:00,
2013-05-29 08:40:00,71.8,61.8,30.00,SSW,207,5.0,11.0,71,0.00,,,0.00,116,HR-IXPWINDi_r2_v1.2.,2013-05-29 12:40:00,
2013-05-29 08:45:00,72.1,62.1,30.00,SW,216,2.0,10.0,71,0.00,,,0.00,109,HR-IXPWINDi_r2_v1.2.,2013-05-29 12:45:00,
2013-05-29 08:50:00,72.3,61.9,30.01,SSW,205,3.0,12.0,70,0.00,,,0.00,104,HR-IXPWINDi_r2_v1.2.,2013-05-29 12:50:00,
2013-05-29 08:56:00,72.5,61.7,30.01,WSW,248,2.0,13.0,69,0.00,,,0.00,98,HR-IXPWINDi_r2_v1.2.,2013-05-29 12:56:00,
2013-05-29 09:01:00,72.7,61.9,30.01,SSW,202,7.0,13.0,69,0.00,,,0.00,102,HR-IXPWINDi_r2_v1.2.,2013-05-29 13:01:00,
2013-05-29 09:06:00,72.7,61.9,30.01,SSW,208,3.0,11.0,69,0.00,,,0.00,114,HR-IXPWINDi_r2_v1.2.,2013-05-29 13:06:00,
2013-05-29 09:11:00,72.7,61.5,30.01,SW,214,10.0,10.0,68,0.00,,,0.00,209,HR-IXPWINDi_r2_v1.2.,2013-05-29 13:11:00,
2013-05-29 09:16:00,73.0,62.6,30.02,SSW,196,4.0,10.0,70,0.00,,,0.00,269,HR-IXPWINDi_r2_v1.2.,2013-05-29 13:16:00,
2013-05-29 09:22:00,73.3,62.9,30.02,SW,233,4.0,10.0,70,0.00,,,0.00,541,HR-IXPWINDi_r2_v1.2.,2013-05-29 13:22:00,
2013-05-29 09:27:00,73.9,63.8,30.02,SSW,195,3.0,10.0,71,0.00,,,0.00,388,HR-IXPWINDi_r2_v1.2.,2013-05-29 13:27:00,
2013-05-29 09:32:00,74.2,63.3,30.02,SSW,196,11.0,15.0,69,0.00,,,0.00,605,HR-IXPWINDi_r2_v1.2.,2013-05-29 13:32:00,
2013-05-29 09:37:00,75.1,63.8,30.02,WNW,295,4.0,15.0,68,0.00,,,0.00,512,HR-IXPWINDi_r2_v1.2.,2013-05-29 13:37:00,
2013-05-29 09:43:00,75.6,63.8,30.02,SW,234,3.0,13.0,67,0.00,,,0.00,547,HR-IXPWINDi_r2_v1.2.,2013-05-29 13:43:00,
2013-05-29 09:48:00,76.1,63.0,30.01,SW,224,11.0,15.0,64,0.00,,,0.00,724,HR-IXPWINDi_r2_v1.2.,2013-05-29 13:48:00,
2013-05-29 09:53:00,76.7,64.0,30.01,WNW,289,2.0,15.0,65,0.00,,,0.00,582,HR-IXPWINDi_r2_v1.2.,2013-05-29 13:53:00,
2013-05-29 09:58:00,77.0,63.8,30.01,WNW,285,3.0,15.0,64,0.00,,,0.00,510,HR-IXPWINDi_r2_v1.2.,2013-05-29 13:58:00,
2013-05-29 10:03:00,77.4,63.8,30.01,SW,224,2.0,11.0,63,0.00,,,0.00,545,HR-IXPWINDi_r2_v1.2.,2013-05-29 14:03:00,
2013-05-29 10:09:00,77.6,63.5,30.01,West,260,0.0,14.0,62,0.00,,,0.00,605,HR-IXPWINDi_r2_v1.2.,2013-05-29 14:09:00,
2013-05-29 10:14:00,77.7,63.1,30.01,WSW,244,6.0,14.0,61,0.00,,,0.00,527,HR-IXPWINDi_r2_v1.2.,2013-05-29 14:14:00,
2013-05-29 10:19:00,77.9,63.3,30.01,SSW,204,7.0,14.0,61,0.00,,,0.00,524,HR-IXPWINDi_r2_v1.2.,2013-05-29 14:19:00,
2013-05-29 10:24:00,78.1,63.5,30.01,SSW,201,4.0,15.0,61,0.00,,,0.00,485,HR-IXPWINDi_r2_v1.2.,2013-05-29 14:24:00,
2013-05-29 10:29:00,78.3,63.7,30.01,South,191,12.0,17.0,61,0.00,,,0.00,677,HR-IXPWINDi_r2_v1.2.,2013-05-29 14:29:00,
2013-05-29 10:34:00,78.5,62.9,30.01,SSW,199,10.0,17.0,59,0.00,,,0.00,216,HR-IXPWINDi_r2_v1.2.,2013-05-29 14:34:00,
2013-05-29 10:40:00,78.6,63.5,30.01,SW,228,4.0,16.0,60,0.00,,,0.00,631,HR-IXPWINDi_r2_v1.2.,2013-05-29 14:40:00,
2013-05-29 10:45:00,78.8,64.2,30.01,SW,230,2.0,15.0,61,0.00,,,0.00,896,HR-IXPWINDi_r2_v1.2.,2013-05-29 14:45:00,
2013-05-29 10:50:00,79.0,63.4,30.00,SW,217,6.0,15.0,59,0.00,,,0.00,448,HR-IXPWINDi_r2_v1.2.,2013-05-29 14:50:00,
2013-05-29 10:55:00,79.2,63.6,30.00,SSW,206,17.0,17.0,59,0.00,,,0.00,503,HR-IXPWINDi_r2_v1.2.,2013-05-29 14:55:00,
2013-05-29 11:00:00,79.2,62.6,30.00,SSW,198,12.0,21.0,57,0.00,,,0.00,777,HR-IXPWINDi_r2_v1.2.,2013-05-29 15:00:00,
2013-05-29 11:05:00,79.2,62.6,30.00,NW,309,16.0,21.0,57,0.00,,,0.00,911,HR-IXPWINDi_r2_v1.2.,2013-05-29 15:05:00,
2013-05-29 11:11:00,79.4,63.8,30.00,SSW,205,7.0,17.0,59,0.00,,,0.00,394,HR-IXPWINDi_r2_v1.2.,2013-05-29 15:11:00,
2013-05-29 11:16:00,79.4,62.8,30.00,SW,227,9.0,16.0,57,0.00,,,0.00,355,HR-IXPWINDi_r2_v1.2.,2013-05-29 15:16:00,
2013-05-29 11:21:00,79.8,64.1,30.00,SSW,210,9.0,16.0,59,0.00,,,0.00,1044,HR-IXPWINDi_r2_v1.2.,2013-05-29 15:21:00,
2013-05-29 11:26:00,79.9,62.8,30.00,South,189,14.0,16.0,56,0.00,,,0.00,617,HR-IXPWINDi_r2_v1.2.,2013-05-29 15:26:00,
2013-05-29 11:32:00,80.1,63.9,30.01,South,186,10.0,16.0,58,0.00,,,0.00,587,HR-IXPWINDi_r2_v1.2.,2013-05-29 15:32:00,
2013-05-29 11:37:00,80.1,62.4,30.01,SW,216,14.0,18.0,55,0.00,,,0.00,573,HR-IXPWINDi_r2_v1.2.,2013-05-29 15:37:00,
2013-05-29 11:42:00,80.1,63.4,30.01,SSW,201,5.0,18.0,57,0.00,,,0.00,441,HR-IXPWINDi_r2_v1.2.,2013-05-29 15:42:00,
2013-05-29 11:47:00,79.6,63.0,30.01,SW,228,4.0,17.0,57,0.00,,,0.00,529,HR-IXPWINDi_r2_v1.2.,2013-05-29 15:47:00,
2013-05-29 11:53:00,79.4,62.3,30.01,SW,219,5.0,16.0,56,0.00,,,0.00,422,HR-IXPWINDi_r2_v1.2.,2013-05-29 15:53:00,
2013-05-29 11:58:00,79.4,63.3,30.01,SSW,199,3.0,15.0,58,0.00,,,0.00,506,HR-IXPWINDi_r2_v1.2.,2013-05-29 15:58:00,
2013-05-29 12:03:00,79.4,63.3,30.01,SW,226,9.0,12.0,58,0.00,,,0.00,425,HR-IXPWINDi_r2_v1.2.,2013-05-29 16:03:00,
2013-05-29 12:08:00,79.6,63.0,30.01,SSW,196,8.0,15.0,57,0.00,,,0.00,450,HR-IXPWINDi_r2_v1.2.,2013-05-29 16:08:00,
2013-05-29 12:13:00,79.6,62.5,30.01,SW,217,2.0,15.0,56,0.00,,,0.00,399,HR-IXPWINDi_r2_v1.2.,2013-05-29 16:13:00,
2013-05-29 12:18:00,79.6,62.0,30.02,SSW,193,5.0,15.0,55,0.00,,,0.00,374,HR-IXPWINDi_r2_v1.2.,2013-05-29 16:18:00,
2013-05-29 12:24:00,79.4,61.8,30.02,SSW,198,5.0,15.0,55,0.00,,,0.00,408,HR-IXPWINDi_r2_v1.2.,2013-05-29 16:24:00,
2013-05-29 12:29:00,79.6,62.0,30.02,SW,224,3.0,15.0,55,0.00,,,0.00,571,HR-IXPWINDi_r2_v1.2.,2013-05-29 16:29:00,
2013-05-29 12:34:00,79.8,62.7,30.02,SW,214,11.0,16.0,56,0.00,,,0.00,561,HR-IXPWINDi_r2_v1.2.,2013-05-29 16:34:00,
2013-05-29 12:39:00,79.9,61.7,30.02,SW,221,6.0,17.0,54,0.00,,,0.00,448,HR-IXPWINDi_r2_v1.2.,2013-05-29 16:39:00,
2013-05-29 12:45:00,80.1,62.4,30.02,SSW,206,6.0,17.0,55,0.00,,,0.00,432,HR-IXPWINDi_r2_v1.2.,2013-05-29 16:45:00,
2013-05-29 12:50:00,80.3,61.6,30.01,SSW,204,6.0,12.0,53,0.00,,,0.00,466,HR-IXPWINDi_r2_v1.2.,2013-05-29 16:50:00,
2013-05-29 12:55:00,80.3,62.1,30.01,NW,312,4.0,12.0,54,0.00,,,0.00,675,HR-IXPWINDi_r2_v1.2.,2013-05-29 16:55:00,
2013-05-29 13:00:00,80.7,63.0,30.01,SW,215,3.0,12.0,55,0.00,,,0.00,791,HR-IXPWINDi_r2_v1.2.,2013-05-29 17:00:00,
2013-05-29 13:05:00,80.9,63.7,30.01,WSW,248,8.0,12.0,56,0.00,,,0.00,962,HR-IXPWINDi_r2_v1.2.,2013-05-29 17:05:00,
2013-05-29 13:10:00,81.2,62.4,30.01,WSW,241,6.0,19.0,53,0.00,,,0.00,965,HR-IXPWINDi_r2_v1.2.,2013-05-29 17:10:00,
2013-05-29 13:16:00,81.6,62.8,30.01,SSW,201,11.0,19.0,53,0.00,,,0.00,1085,HR-IXPWINDi_r2_v1.2.,2013-05-29 17:16:00,
2013-05-29 13:21:00,82.0,63.1,30.01,SW,219,4.0,17.0,53,0.00,,,0.00,849,HR-IXPWINDi_r2_v1.2.,2013-05-29 17:21:00,
2013-05-29 13:26:00,82.2,63.3,30.01,SSW,204,10.0,17.0,53,0.00,,,0.00,501,HR-IXPWINDi_r2_v1.2.,2013-05-29 17:26:00,
2013-05-29 13:31:00,82.2,63.9,30.01,WSW,253,6.0,15.0,54,0.00,,,0.00,1071,HR-IXPWINDi_r2_v1.2.,2013-05-29 17:31:00,
2013-05-29 13:36:00,82.2,62.8,30.01,NW,313,6.0,15.0,52,0.00,,,0.00,970,HR-IXPWINDi_r2_v1.2.,2013-05-29 17:36:00,
2013-05-29 13:41:00,82.4,63.5,30.01,SW,222,2.0,12.0,53,0.00,,,0.00,374,HR-IXPWINDi_r2_v1.2.,2013-05-29 17:41:00,
2013-05-29 13:47:00,82.4,62.4,30.00,SW,226,9.0,14.0,51,0.00,,,0.00,374,HR-IXPWINDi_r2_v1.2.,2013-05-29 17:47:00,
2013-05-29 13:52:00,82.6,63.1,30.00,SW,215,13.0,14.0,52,0.00,,,0.00,928,HR-IXPWINDi_r2_v1.2.,2013-05-29 17:52:00,
2013-05-29 13:57:00,82.8,61.6,30.00,South,178,5.0,16.0,49,0.00,,,0.00,919,HR-IXPWINDi_r2_v1.2.,2013-05-29 17:57:00,
2013-05-29 14:02:00,83.2,62.6,30.00,SE,132,10.0,16.0,50,0.00,,,0.00,930,HR-IXPWINDi_r2_v1.2.,2013-05-29 18:02:00,
2013-05-29 14:07:00,83.4,62.2,30.00,SSW,205,11.0,16.0,49,0.00,,,0.00,928,HR-IXPWINDi_r2_v1.2.,2013-05-29 18:07:00,
2013-05-29 14:12:00,83.4,62.2,30.00,SSW,199,9.0,16.0,49,0.00,,,0.00,923,HR-IXPWINDi_r2_v1.2.,2013-05-29 18:12:00,
2013-05-29 14:17:00,83.6,63.0,29.99,SSW,209,10.0,15.0,50,0.00,,,0.00,789,HR-IXPWINDi_r2_v1.2.,2013-05-29 18:17:00,
2013-05-29 14:23:00,83.6,62.4,29.99,SSW,196,11.0,17.0,49,0.00,,,0.00,874,HR-IXPWINDi_r2_v1.2.,2013-05-29 18:23:00,
2013-05-29 14:28:00,83.8,62.0,29.99,South,178,5.0,17.0,48,0.00,,,0.00,863,HR-IXPWINDi_r2_v1.2.,2013-05-29 18:28:00,
2013-05-29 14:33:00,83.8,63.1,29.99,SSW,208,13.0,18.0,50,0.00,,,0.00,889,HR-IXPWINDi_r2_v1.2.,2013-05-29 18:33:00,
2013-05-29 14:38:00,84.0,63.9,29.99,WSW,249,1.0,18.0,51,0.00,,,0.00,853,HR-IXPWINDi_r2_v1.2.,2013-05-29 18:38:00,
2013-05-29 14:44:00,84.1,62.8,29.99,SSW,210,3.0,16.0,49,0.00,,,0.00,844,HR-IXPWINDi_r2_v1.2.,2013-05-29 18:44:00,
2013-05-29 14:49:00,84.5,62.0,29.99,SW,219,7.0,19.0,47,0.00,,,0.00,831,HR-IXPWINDi_r2_v1.2.,2013-05-29 18:49:00,
2013-05-29 14:54:00,84.7,62.2,29.99,South,189,4.0,19.0,47,0.00,,,0.00,823,HR-IXPWINDi_r2_v1.2.,2013-05-29 18:54:00,
2013-05-29 14:59:00,84.9,63.0,29.99,SE,144,6.0,16.0,48,0.00,,,0.00,780,HR-IXPWINDi_r2_v1.2.,2013-05-29 18:59:00,
2013-05-29 15:04:00,85.1,63.2,29.99,SSW,201,9.0,13.0,48,0.00,,,0.00,858,HR-IXPWINDi_r2_v1.2.,2013-05-29 19:04:00,
2013-05-29 15:09:00,84.9,63.0,29.99,SW,216,14.0,14.0,48,0.00,,,0.00,865,HR-IXPWINDi_r2_v1.2.,2013-05-29 19:09:00,
2013-05-29 15:15:00,84.5,62.0,29.99,SSE,160,8.0,20.0,47,0.00,,,0.00,896,HR-IXPWINDi_r2_v1.2.,2013-05-29 19:15:00,
2013-05-29 15:20:00,84.3,61.8,29.99,SW,234,7.0,18.0,47,0.00,,,0.00,369,HR-IXPWINDi_r2_v1.2.,2013-05-29 19:20:00,
2013-05-29 15:25:00,84.1,61.0,29.99,SSW,210,10.0,18.0,46,0.00,,,0.00,638,HR-IXPWINDi_r2_v1.2.,2013-05-29 19:25:00,
2013-05-29 15:30:00,84.5,61.4,29.99,ESE,116,7.0,15.0,46,0.00,,,0.00,791,HR-IXPWINDi_r2_v1.2.,2013-05-29 19:30:00,
2013-05-29 15:36:00,84.5,62.0,29.99,ESE,123,4.0,16.0,47,0.00,,,0.00,889,HR-IXPWINDi_r2_v1.2.,2013-05-29 19:36:00,
2013-05-29 15:41:00,84.5,62.0,29.99,SSW,195,12.0,19.0,47,0.00,,,0.00,833,HR-IXPWINDi_r2_v1.2.,2013-05-29 19:41:00,
2013-05-29 15:46:00,84.7,63.4,29.99,SW,218,12.0,19.0,49,0.00,,,0.00,814,HR-IXPWINDi_r2_v1.2.,2013-05-29 19:46:00,
2013-05-29 15:51:00,84.7,62.2,29.99,SSW,208,6.0,18.0,47,0.00,,,0.00,831,HR-IXPWINDi_r2_v1.2.,2013-05-29 19:51:00,
2013-05-29 15:57:00,84.7,62.2,29.99,SSW,204,11.0,18.0,47,0.00,,,0.00,332,HR-IXPWINDi_r2_v1.2.,2013-05-29 19:57:00,
2013-05-29 16:02:00,84.7,62.8,29.99,South,178,8.0,19.0,48,0.00,,,0.00,981,HR-IXPWINDi_r2_v1.2.,2013-05-29 20:02:00,
2013-05-29 16:07:00,84.7,62.2,29.99,SW,223,4.0,19.0,47,0.00,,,0.00,628,HR-IXPWINDi_r2_v1.2.,2013-05-29 20:07:00,
2013-05-29 16:12:00,84.5,62.0,29.99,South,191,11.0,16.0,47,0.00,,,0.00,628,HR-IXPWINDi_r2_v1.2.,2013-05-29 20:12:00,
2013-05-29 16:18:00,84.3,61.8,29.99,WSW,241,3.0,19.0,47,0.00,,,0.00,334,HR-IXPWINDi_r2_v1.2.,2013-05-29 20:18:00,
2013-05-29 16:23:00,84.1,62.3,29.99,WSW,244,10.0,19.0,48,0.00,,,0.00,814,HR-IXPWINDi_r2_v1.2.,2013-05-29 20:23:00,
2013-05-29 16:28:00,84.5,62.6,29.99,SSW,208,5.0,16.0,48,0.00,,,0.00,698,HR-IXPWINDi_r2_v1.2.,2013-05-29 20:28:00,
2013-05-29 16:33:00,84.9,63.6,29.99,SSW,209,11.0,14.0,49,0.00,,,0.00,700,HR-IXPWINDi_r2_v1.2.,2013-05-29 20:33:00,
2013-05-29 16:38:00,84.9,61.8,29.99,SSW,195,7.0,13.0,46,0.00,,,0.00,179,HR-IXPWINDi_r2_v1.2.,2013-05-29 20:38:00,
2013-05-29 16:44:00,85.1,62.6,29.99,SSW,204,8.0,13.0,47,0.00,,,0.00,561,HR-IXPWINDi_r2_v1.2.,2013-05-29 20:44:00,
2013-05-29 16:49:00,84.7,62.2,29.98,South,189,5.0,13.0,47,0.00,,,0.00,248,HR-IXPWINDi_r2_v1.2.,2013-05-29 20:49:00,
2013-05-29 16:54:00,84.3,60.6,29.98,SSW,210,14.0,14.0,45,0.00,,,0.00,214,HR-IXPWINDi_r2_v1.2.,2013-05-29 20:54:00,
2013-05-29 16:59:00,84.1,61.7,29.98,South,178,3.0,14.0,47,0.00,,,0.00,399,HR-IXPWINDi_r2_v1.2.,2013-05-29 20:59:00,
2013-05-29 17:04:00,84.1,61.0,29.98,SSE,157,5.0,14.0,46,0.00,,,0.00,628,HR-IXPWINDi_r2_v1.2.,2013-05-29 21:04:00,
2013-05-29 17:10:00,84.5,60.8,29.98,SW,229,9.0,16.0,45,0.00,,,0.00,622,HR-IXPWINDi_r2_v1.2.,2013-05-29 21:10:00,
2013-05-29 17:15:00,84.7,60.3,29.98,SW,229,7.0,16.0,44,0.00,,,0.00,610,HR-IXPWINDi_r2_v1.2.,2013-05-29 21:15:00,
2013-05-29 17:20:00,84.9,60.5,29.98,SW,236,10.0,14.0,44,0.00,,,0.00,587,HR-IXPWINDi_r2_v1.2.,2013-05-29 21:20:00,
2013-05-29 17:25:00,85.1,60.7,29.98,SSW,203,11.0,16.0,44,0.00,,,0.00,158,HR-IXPWINDi_r2_v1.2.,2013-05-29 21:25:00,
2013-05-29 17:30:00,84.9,60.5,29.98,SSW,201,12.0,16.0,44,0.00,,,0.00,563,HR-IXPWINDi_r2_v1.2.,2013-05-29 21:30:00,
2013-05-29 17:35:00,84.7,61.0,29.98,SSW,203,11.0,16.0,45,0.00,,,0.00,529,HR-IXPWINDi_r2_v1.2.,2013-05-29 21:35:00,
2013-05-29 17:41:00,84.7,61.0,29.98,SSE,150,9.0,16.0,45,0.00,,,0.00,499,HR-IXPWINDi_r2_v1.2.,2013-05-29 21:41:00,
2013-05-29 17:46:00,84.9,59.2,29.98,SSW,205,6.0,15.0,42,0.00,,,0.00,403,HR-IXPWINDi_r2_v1.2.,2013-05-29 21:46:00,
2013-05-29 17:51:00,84.7,60.3,29.98,WNW,288,6.0,16.0,44,0.00,,,0.00,448,HR-IXPWINDi_r2_v1.2.,2013-05-29 21:51:00,
2013-05-29 17:56:00,84.7,60.3,29.98,SSW,213,7.0,18.0,44,0.00,,,0.00,394,HR-IXPWINDi_r2_v1.2.,2013-05-29 21:56:00,
2013-05-29 18:01:00,84.5,60.2,29.98,SSW,198,6.0,18.0,44,0.00,,,0.00,330,HR-IXPWINDi_r2_v1.2.,2013-05-29 22:01:00,
2013-05-29 18:06:00,84.5,60.2,29.98,SSW,203,5.0,12.0,44,0.00,,,0.00,385,HR-IXPWINDi_r2_v1.2.,2013-05-29 22:06:00,
2013-05-29 18:11:00,84.5,60.2,29.98,WNW,283,1.0,12.0,44,0.00,,,0.00,387,HR-IXPWINDi_r2_v1.2.,2013-05-29 22:11:00,
2013-05-29 18:17:00,84.5,60.2,29.98,SW,231,8.0,13.0,44,0.00,,,0.00,380,HR-IXPWINDi_r2_v1.2.,2013-05-29 22:17:00,
2013-05-29 18:22:00,84.5,60.2,29.98,West,274,3.0,13.0,44,0.00,,,0.00,362,HR-IXPWINDi_r2_v1.2.,2013-05-29 22:22:00,
2013-05-29 18:27:00,84.5,59.5,29.98,SW,219,9.0,12.0,43,0.00,,,0.00,341,HR-IXPWINDi_r2_v1.2.,2013-05-29 22:27:00,
2013-05-29 18:32:00,84.5,61.4,29.98,SE,138,2.0,11.0,46,0.00,,,0.00,322,HR-IXPWINDi_r2_v1.2.,2013-05-29 22:32:00,
2013-05-29 18:38:00,84.5,61.4,29.98,SW,226,4.0,11.0,46,0.00,,,0.00,299,HR-IXPWINDi_r2_v1.2.,2013-05-29 22:38:00,
2013-05-29 18:43:00,84.3,59.3,29.98,WSW,241,8.0,14.0,43,0.00,,,0.00,288,HR-IXPWINDi_r2_v1.2.,2013-05-29 22:43:00,
2013-05-29 18:48:00,84.0,59.7,29.98,South,186,13.0,16.0,44,0.00,,,0.00,274,HR-IXPWINDi_r2_v1.2.,2013-05-29 22:48:00,
2013-05-29 18:54:00,83.8,58.9,29.98,SSW,210,10.0,16.0,43,0.00,,,0.00,253,HR-IXPWINDi_r2_v1.2.,2013-05-29 22:54:00,
2013-05-29 18:59:00,83.6,58.7,29.98,WSW,257,4.0,14.0,43,0.00,,,0.00,237,HR-IXPWINDi_r2_v1.2.,2013-05-29 22:59:00,
2013-05-29 19:04:00,83.4,59.2,29.98,SSW,196,6.0,13.0,44,0.00,,,0.00,218,HR-IXPWINDi_r2_v1.2.,2013-05-29 23:04:00,
2013-05-29 19:09:00,83.4,58.5,29.98,SSW,213,6.0,14.0,43,0.00,,,0.00,200,HR-IXPWINDi_r2_v1.2.,2013-05-29 23:09:00,
2013-05-29 19:14:00,83.2,59.6,29.98,South,176,9.0,14.0,45,0.00,,,0.00,181,HR-IXPWINDi_r2_v1.2.,2013-05-29 23:14:00,
2013-05-29 19:19:00,83.0,58.8,29.99,South,174,13.0,17.0,44,0.00,,,0.00,62,HR-IXPWINDi_r2_v1.2.,2013-05-29 23:19:00,
2013-05-29 19:24:00,82.8,58.6,29.99,SSW,197,9.0,17.0,44,0.00,,,0.00,49,HR-IXPWINDi_r2_v1.2.,2013-05-29 23:24:00,
2013-05-29 19:30:00,82.6,58.4,29.99,SSW,210,7.0,17.0,44,0.00,,,0.00,44,HR-IXPWINDi_r2_v1.2.,2013-05-29 23:30:00,
2013-05-29 19:35:00,82.4,58.9,29.99,SSW,212,4.0,13.0,45,0.00,,,0.00,39,HR-IXPWINDi_r2_v1.2.,2013-05-29 23:35:00,
2013-05-29 19:40:00,82.2,59.3,29.99,South,188,7.0,12.0,46,0.00,,,0.00,39,HR-IXPWINDi_r2_v1.2.,2013-05-29 23:40:00,
2013-05-29 19:46:00,81.8,59.0,29.99,SSW,201,3.0,10.0,46,0.00,,,0.00,37,HR-IXPWINDi_r2_v1.2.,2013-05-29 23:46:00,
2013-05-29 19:51:00,81.6,59.4,29.99,SW,215,1.0,10.0,47,0.00,,,0.00,30,HR-IXPWINDi_r2_v1.2.,2013-05-29 23:51:00,
2013-05-29 19:56:00,81.4,59.2,29.99,SSW,206,4.0,10.0,47,0.00,,,0.00,26,HR-IXPWINDi_r2_v1.2.,2013-05-29 23:56:00,
2013-05-29 20:01:00,81.4,59.8,29.99,SSW,210,2.0,10.0,48,0.00,,,0.00,23,HR-IXPWINDi_r2_v1.2.,2013-05-30 00:01:00,
2013-05-29 20:06:00,81.1,59.5,29.99,SW,226,5.0,9.0,48,0.00,,,0.00,21,HR-IXPWINDi_r2_v1.2.,2013-05-30 00:06:00,
2013-05-29 20:12:00,81.1,60.1,29.99,SSW,208,4.0,7.0,49,0.00,,,0.00,19,HR-IXPWINDi_r2_v1.2.,2013-05-30 00:12:00,
2013-05-29 20:17:00,80.7,59.7,29.99,SSW,206,0.0,9.0,49,0.00,,,0.00,16,HR-IXPWINDi_r2_v1.2.,2013-05-30 00:17:00,
2013-05-29 20:22:00,80.5,59.5,29.99,SSW,206,0.0,9.0,49,0.00,,,0.00,12,HR-IXPWINDi_r2_v1.2.,2013-05-30 00:22:00,
2013-05-29 20:28:00,80.3,59.4,29.99,SW,217,2.0,4.0,49,0.00,,,0.00,9,HR-IXPWINDi_r2_v1.2.,2013-05-30 00:28:00,
2013-05-29 20:33:00,80.1,59.7,29.99,SW,217,1.0,4.0,50,0.00,,,0.00,5,HR-IXPWINDi_r2_v1.2.,2013-05-30 00:33:00,
2013-05-29 20:38:00,79.8,60.0,29.99,SW,217,0.0,3.0,51,0.00,,,0.00,0,HR-IXPWINDi_r2_v1.2.,2013-05-30 00:38:00,
2013-05-29 20:43:00,79.6,60.4,29.99,SW,217,0.0,3.0,52,0.00,,,0.00,0,HR-IXPWINDi_r2_v1.2.,2013-05-30 00:43:00,
2013-05-29 20:48:00,79.4,60.2,29.99,SW,217,0.0,1.0,52,0.00,,,0.00,0,HR-IXPWINDi_r2_v1.2.,2013-05-30 00:48:00,
2013-05-29 20:54:00,79.0,60.4,29.99,SW,217,0.0,1.0,53,0.00,,,0.00,0,HR-IXPWINDi_r2_v1.2.,2013-05-30 00:54:00,
2013-05-29 20:59:00,78.8,60.7,29.99,SW,217,0.0,0.0,54,0.00,,,0.00,0,HR-IXPWINDi_r2_v1.2.,2013-05-30 00:59:00,
2013-05-29 21:04:00,78.5,61.5,29.99,SW,217,0.0,0.0,56,0.00,,,0.00,0,HR-IXPWINDi_r2_v1.2.,2013-05-30 01:04:00,
2013-05-29 21:09:00,78.1,62.1,29.99,SW,217,0.0,0.0,58,0.00,,,0.00,0,HR-IXPWINDi_r2_v1.2.,2013-05-30 01:09:00,
2013-05-29 21:14:00,77.4,61.9,29.99,SW,217,0.0,0.0,59,0.00,,,0.00,0,HR-IXPWINDi_r2_v1.2.,2013-05-30 01:14:00,
2013-05-29 21:19:00,76.8,61.3,29.99,SW,217,0.0,0.0,59,0.00,,,0.00,0,HR-IXPWINDi_r2_v1.2.,2013-05-30 01:19:00,
2013-05-29 21:24:00,76.5,62.0,29.99,SW,217,0.0,0.0,61,0.00,,,0.00,0,HR-IXPWINDi_r2_v1.2.,2013-05-30 01:24:00,
2013-05-29 21:29:00,76.0,61.5,29.99,SW,217,0.0,0.0,61,0.00,,,0.00,0,HR-IXPWINDi_r2_v1.2.,2013-05-30 01:29:00,
2013-05-29 21:34:00,75.4,61.4,29.99,SW,217,0.0,0.0,62,0.00,,,0.00,0,HR-IXPWINDi_r2_v1.2.,2013-05-30 01:34:00,
2013-05-29 21:40:00,74.9,61.4,29.99,SW,217,0.0,0.0,63,0.00,,,0.00,0,HR-IXPWINDi_r2_v1.2.,2013-05-30 01:40:00,
2013-05-29 21:45:00,74.4,60.9,29.99,SW,217,0.0,0.0,63,0.00,,,0.00,0,HR-IXPWINDi_r2_v1.2.,2013-05-30 01:45:00,
2013-05-29 21:50:00,74.0,61.4,29.99,SW,217,0.0,0.0,65,0.00,,,0.00,0,HR-IXPWINDi_r2_v1.2.,2013-05-30 01:50:00,
2013-05-29 21:56:00,73.5,61.4,29.99,SW,217,0.0,0.0,66,0.00,,,0.00,0,HR-IXPWINDi_r2_v1.2.,2013-05-30 01:56:00,
2013-05-29 22:01:00,73.0,61.3,29.99,SW,217,0.0,0.0,67,0.00,,,0.00,0,HR-IXPWINDi_r2_v1.2.,2013-05-30 02:01:00,
2013-05-29 22:06:00,72.5,61.3,30.00,SW,217,0.0,0.0,68,0.00,,,0.00,0,HR-IXPWINDi_r2_v1.2.,2013-05-30 02:06:00,
2013-05-29 22:11:00,72.1,61.3,30.00,SW,217,0.0,0.0,69,0.00,,,0.00,0,HR-IXPWINDi_r2_v1.2.,2013-05-30 02:11:00,
2013-05-29 22:16:00,71.6,60.8,30.00,SW,217,0.0,0.0,69,0.00,,,0.00,0,HR-IXPWINDi_r2_v1.2.,2013-05-30 02:16:00,
2013-05-29 22:21:00,71.3,61.0,30.00,SW,217,0.0,0.0,70,0.00,,,0.00,0,HR-IXPWINDi_r2_v1.2.,2013-05-30 02:21:00,
2013-05-29 22:27:00,70.9,61.0,30.00,SW,217,0.0,0.0,71,0.00,,,0.00,0,HR-IXPWINDi_r2_v1.2.,2013-05-30 02:27:00,
2013-05-29 22:32:00,70.6,60.7,30.00,SW,217,0.0,0.0,71,0.00,,,0.00,0,HR-IXPWINDi_r2_v1.2.,2013-05-30 02:32:00,
2013-05-29 22:37:00,70.3,61.2,30.00,SW,217,0.0,0.0,73,0.00,,,0.00,0,HR-IXPWINDi_r2_v1.2.,2013-05-30 02:37:00,
2013-05-29 22:42:00,69.9,61.2,30.00,SW,217,0.0,0.0,74,0.00,,,0.00,0,HR-IXPWINDi_r2_v1.2.,2013-05-30 02:42:00,
2013-05-29 22:47:00,69.6,61.3,30.01,SW,217,0.0,0.0,75,0.00,,,0.00,0,HR-IXPWINDi_r2_v1.2.,2013-05-30 02:47:00,
2013-05-29 22:53:00,69.3,61.0,30.01,SW,217,0.0,0.0,75,0.00,,,0.00,0,HR-IXPWINDi_r2_v1.2.,2013-05-30 02:53:00,
2013-05-29 22:58:00,68.9,60.6,30.01,SW,217,0.0,0.0,75,0.00,,,0.00,0,HR-IXPWINDi_r2_v1.2.,2013-05-30 02:58:00,
2013-05-29 23:03:00,68.6,61.0,30.01,SW,217,0.0,0.0,77,0.00,,,0.00,0,HR-IXPWINDi_r2_v1.2.,2013-05-30 03:03:00,
2013-05-29 23:08:00,68.3,61.1,30.01,SW,217,0.0,0.0,78,0.00,,,0.00,0,HR-IXPWINDi_r2_v1.2.,2013-05-30 03:08:00,
2013-05-29 23:13:00,68.1,60.9,30.01,SW,217,0.0,0.0,78,0.00,,,0.00,0,HR-IXPWINDi_r2_v1.2.,2013-05-30 03:13:00,
2013-05-29 23:18:00,67.8,60.6,30.01,SW,217,0.0,0.0,78,0.00,,,0.00,0,HR-IXPWINDi_r2_v1.2.,2013-05-30 03:18:00,
2013-05-29 23:24:00,67.6,60.8,30.01,SW,217,0.0,0.0,79,0.00,,,0.00,0,HR-IXPWINDi_r2_v1.2.,2013-05-30 03:24:00,
2013-05-29 23:29:00,67.3,60.5,30.01,SW,217,0.0,0.0,79,0.00,,,0.00,0,HR-IXPWINDi_r2_v1.2.,2013-05-30 03:29:00,
2013-05-29 23:34:00,67.1,61.0,30.01,SW,217,0.0,0.0,81,0.00,,,0.00,0,HR-IXPWINDi_r2_v1.2.,2013-05-30 03:34:00,
2013-05-29 23:39:00,66.9,61.2,30.01,SW,217,0.0,0.0,82,0.00,,,0.00,0,HR-IXPWINDi_r2_v1.2.,2013-05-30 03:39:00,
2013-05-29 23:44:00,66.6,61.2,30.01,SW,217,0.0,0.0,83,0.00,,,0.00,0,HR-IXPWINDi_r2_v1.2.,2013-05-30 03:44:00,
2013-05-29 23:49:00,66.4,61.0,30.01,SW,217,0.0,0.0,83,0.00,,,0.00,0,HR-IXPWINDi_r2_v1.2.,2013-05-30 03:49:00,
2013-05-29 23:55:00,66.1,60.7,30.01,SW,217,0.0,0.0,83,0.00,,,0.00,0,HR-IXPWINDi_r2_v1.2.,2013-05-30 03:55:00,